Date,TemperatureHighF,TemperatureAvgF,TemperatureLowF,DewpointHighF,DewpointAvgF,DewpointLowF,HumidityHigh,HumidityAvg,HumidityLow,PressureMaxIn,PressureMinIn,WindSpeedMaxMPH,WindSpeedAvgMPH,GustSpeedMaxMPH,PrecipitationSumIn
2013-1-1,33.0,25.1,15.0,20.0,13.2,5.0,76,61,47,0.00,40.00,13,6,28,0.00
2013-1-2,30.0,23.7,15.0,19.0,12.8,6.0,79,63,45,0.00,40.00,13,7,29,0.00
2013-1-3,43.0,25.2,8.0,14.0,6.0,-2.0,83,48,18,0.00,40.00,11,3,21,0.00
2013-1-4,55.0,37.3,26.0,20.0,6.0,-4.0,50,29,11,0.00,40.00,10,4,18,0.00
2013-1-5,41.0,33.2,28.0,18.0,14.8,7.0,64,47,31,0.00,40.00,15,7,23,0.00
2013-1-6,49.0,39.2,23.0,17.0,8.0,2.0,53,29,15,0.00,40.00,11,7,23,0.00
2013-1-7,45.0,36.2,28.0,22.0,15.9,10.0,63,44,28,0.00,40.00,11,4,18,0.00
2013-1-8,44.0,36.3,29.0,21.0,16.5,13.0,59,45,37,0.00,40.00,12,7,27,0.00
2013-1-9,52.0,41.4,29.0,24.0,19.7,16.0,62,43,28,0.00,40.00,14,8,37,0.00
2013-1-10,52.0,45.4,37.0,19.0,15.3,11.0,43,30,20,0.00,40.00,12,8,27,0.00
2013-1-11,49.0,18.8,4.0,23.0,13.1,-4.0,96,80,28,0.00,40.00,13,7,23,0.00
2013-1-12,12.0,5.2,2.0,6.0,-0.9,-6.0,82,76,69,0.00,40.00,12,5,24,0.00
2013-1-13,18.0,8.6,1.0,8.0,1.3,-4.0,81,72,57,0.00,40.00,9,4,17,0.02
2013-1-14,20.0,12.0,7.0,0.0,-2.5,-7.0,68,52,37,0.00,40.00,11,8,25,0.01
2013-1-15,34.0,23.1,6.0,24.0,10.2,-10.0,75,58,29,0.00,40.00,17,11,33,0.01
2013-1-16,44.0,34.6,29.0,24.0,19.5,17.0,72,55,34,0.00,40.00,19,9,32,0.07
2013-1-17,46.0,37.9,33.0,19.0,17.4,16.0,53,43,32,0.00,40.00,13,8,26,0.02
2013-1-18,52.0,41.5,36.0,19.0,15.0,11.0,46,34,25,0.00,40.00,13,7,26,0.01
2013-1-19,46.0,34.7,25.0,25.0,18.6,14.0,82,54,28,0.00,40.00,13,6,24,0.00
2013-1-20,35.0,20.3,10.0,21.0,14.4,7.0,87,78,41,0.00,40.00,10,5,18,0.00
2013-1-21,22.0,12.0,9.0,12.0,7.8,5.0,88,84,66,0.00,40.00,8,3,12,0.00
2013-1-22,49.0,34.6,10.0,14.0,10.0,5.0,86,40,20,0.00,40.00,10,5,18,0.00
2013-1-23,36.0,20.6,11.0,15.0,10.5,5.0,88,69,27,0.00,40.00,5,3,12,0.00
2013-1-24,57.0,37.5,11.0,24.0,16.2,8.0,88,48,19,0.00,40.00,16,5,26,0.00
2013-1-25,52.0,38.9,31.0,25.0,21.0,15.0,67,49,25,0.00,40.00,11,6,20,0.00
2013-1-26,53.0,43.0,38.0,27.0,23.9,20.0,55,47,33,0.00,40.00,8,4,19,0.00
2013-1-27,53.0,40.9,29.0,30.0,25.9,21.0,90,57,41,0.00,40.00,10,4,19,0.00
2013-1-28,30.0,27.5,26.0,28.0,26.0,25.0,97,94,83,0.00,40.00,7,3,12,0.00
2013-1-29,34.0,25.2,12.0,25.0,15.6,3.0,95,69,37,0.00,40.00,12,6,20,0.04
2013-1-30,30.0,17.0,5.0,19.0,7.8,-2.0,89,68,50,0.00,40.00,11,5,23,0.01
2013-1-31,25.0,12.8,7.0,16.0,6.6,2.0,84,76,67,0.00,40.00,11,6,18,0.00
2013-2-1,42.0,31.9,19.0,28.0,23.9,13.0,85,73,52,0.00,40.00,12,7,22,0.05
2013-2-2,43.0,34.8,29.0,27.0,21.0,18.0,85,58,37,0.00,40.00,14,8,28,0.03
2013-2-3,50.0,37.9,29.0,22.0,17.2,10.0,70,46,21,0.00,40.00,11,6,21,0.00
2013-2-4,47.0,36.5,29.0,22.0,18.7,17.0,65,49,31,0.00,40.00,14,6,28,0.00
2013-2-5,45.0,38.8,31.0,24.0,22.9,20.0,66,53,44,0.00,40.00,9,6,17,0.00
2013-2-6,53.0,40.1,32.0,31.0,24.6,19.0,78,56,32,0.00,40.00,11,5,19,0.00
2013-2-7,45.0,37.2,31.0,25.0,16.6,14.0,71,44,29,0.00,40.00,10,5,18,0.00
2013-2-8,50.0,37.3,31.0,20.0,16.2,9.0,57,44,23,0.00,40.00,9,5,20,0.00
2013-2-9,39.0,29.4,24.0,26.0,18.1,11.0,86,64,43,0.00,40.00,20,8,35,0.00
2013-2-10,33.0,27.4,17.0,18.0,11.0,4.0,68,50,37,0.00,40.00,21,12,40,0.00
2013-2-11,30.0,21.1,12.0,10.0,5.5,3.0,67,51,34,0.00,40.00,14,7,28,0.00
2013-2-12,45.0,32.2,21.0,16.0,10.3,2.0,54,40,27,0.00,40.00,13,10,26,0.00
2013-2-13,45.0,34.0,26.0,27.0,18.3,12.0,72,53,36,0.00,40.00,18,9,34,0.00
2013-2-14,33.0,26.5,17.0,13.0,6.3,1.0,57,43,29,0.00,40.00,20,9,37,0.00
2013-2-15,29.0,22.8,15.0,14.0,8.7,1.0,66,55,35,0.00,40.00,9,5,18,0.00
2013-2-16,51.0,38.0,23.0,24.0,20.3,14.0,67,50,32,0.00,40.00,13,7,24,0.00
2013-2-17,51.0,40.1,28.0,25.0,19.2,16.0,60,44,27,0.00,40.00,12,8,31,0.00
2013-2-18,34.0,25.8,13.0,16.0,9.9,5.0,76,51,32,0.00,40.00,12,6,24,0.00
2013-2-19,26.0,16.9,11.0,13.0,10.4,7.0,88,76,58,0.00,40.00,10,5,15,0.00
2013-2-20,30.0,19.8,13.0,16.0,11.6,7.0,88,71,45,0.00,40.00,12,7,20,0.00
2013-2-21,25.0,19.5,17.0,20.0,16.6,14.0,93,88,80,0.00,40.00,8,4,12,0.07
2013-2-22,37.0,25.3,16.0,25.0,15.1,10.0,90,69,33,0.00,40.00,11,4,20,0.02
2013-2-23,46.0,33.6,21.0,17.0,12.0,7.0,60,42,24,0.00,40.00,9,5,19,0.01
2013-2-24,33.0,29.7,22.0,30.0,21.7,13.0,90,73,50,0.00,40.00,10,4,18,0.03
2013-2-25,42.0,31.3,19.0,14.0,11.8,8.0,69,45,29,0.00,40.00,12,6,20,0.01
2013-2-26,44.0,33.5,25.0,22.0,15.4,9.0,57,48,35,0.00,40.00,18,7,33,0.00
2013-2-27,39.0,29.1,20.0,20.0,15.8,10.0,87,59,41,0.00,40.00,8,4,16,0.00
2013-2-28,41.0,30.5,22.0,22.0,16.9,11.0,81,58,38,0.00,40.00,8,4,14,0.00
2013-3-1,44.0,34.4,21.0,28.0,17.9,10.0,81,54,28,0.00,40.00,10,5,16,0.00
2013-3-2,57.0,45.6,36.0,29.0,26.1,23.0,72,49,28,0.00,40.00,15,7,31,0.00
2013-3-3,60.0,50.2,36.0,31.0,26.4,23.0,61,41,24,0.00,40.00,11,6,22,0.00
2013-3-4,36.0,25.2,16.0,23.0,6.6,-1.0,66,45,32,0.00,40.00,21,11,40,0.00
2013-3-5,34.0,21.6,11.0,7.0,4.0,-1.0,61,47,28,0.00,40.00,12,6,21,0.00
2013-3-6,47.0,32.6,18.0,21.0,15.2,7.0,70,51,30,0.00,40.00,8,3,12,0.00
2013-3-7,56.0,44.0,31.0,26.0,22.6,19.0,67,44,31,0.00,40.00,13,7,24,0.00
2013-3-8,41.0,33.8,27.0,26.0,25.0,23.0,87,71,55,0.00,40.00,10,6,20,0.00
2013-3-9,47.0,33.1,23.0,29.0,18.2,7.0,96,61,21,0.00,40.00,23,9,39,0.00
2013-3-10,42.0,30.5,17.0,19.0,9.3,3.0,89,44,22,0.00,40.00,8,5,24,0.00
2013-3-11,46.0,37.7,28.0,22.0,12.3,5.0,52,36,22,0.00,40.00,18,8,34,0.00
2013-3-12,41.0,30.3,19.0,11.0,1.8,-4.0,50,32,15,0.00,40.00,11,5,25,0.00
2013-3-13,64.0,47.9,29.0,25.0,18.9,1.0,45,32,22,0.00,40.00,12,6,24,0.00
2013-3-14,68.0,56.1,41.0,29.0,25.0,23.0,54,31,18,0.00,40.00,11,5,33,0.00
2013-3-15,69.0,55.4,41.0,28.0,23.7,19.0,57,31,15,0.00,40.00,17,6,29,0.00
2013-3-16,41.0,29.0,25.0,28.0,25.5,22.0,97,87,57,0.00,40.00,7,3,15,0.06
2013-3-17,46.0,32.8,25.0,34.0,25.2,11.0,97,76,42,0.00,40.00,17,7,42,0.30
2013-3-18,37.0,29.3,23.0,17.0,8.6,-3.0,67,44,19,0.00,40.00,16,10,32,0.03
2013-3-19,38.0,29.8,18.0,17.0,12.2,5.0,64,49,26,0.00,40.00,10,6,29,0.00
2013-3-20,46.0,31.7,14.0,19.0,11.0,2.0,62,43,29,0.00,40.00,11,7,19,0.00
2013-3-21,37.0,30.8,25.0,30.0,20.2,15.0,96,66,48,0.00,40.00,10,6,18,0.00
2013-3-22,37.0,28.8,23.0,28.0,23.3,18.0,96,81,57,0.00,40.00,11,6,19,0.04
2013-3-23,27.0,20.4,14.0,21.0,15.6,9.0,93,81,64,0.00,40.00,7,4,11,0.26
2013-3-24,22.0,15.2,8.0,15.0,8.4,0.0,88,75,51,0.00,40.00,7,4,17,0.01
2013-3-25,31.0,18.0,4.0,17.0,7.2,-4.0,79,63,47,0.00,40.00,8,4,14,0.01
2013-3-26,48.0,32.1,17.0,25.0,11.2,5.0,76,44,19,0.00,40.00,7,5,18,0.00
2013-3-27,55.0,38.7,26.0,18.0,11.6,9.0,58,37,16,0.00,40.00,8,3,18,0.00
2013-3-28,62.0,53.2,46.0,30.0,26.6,24.0,41,36,28,0.00,40.00,8,5,21,0.00
2013-3-29,65.0,53.0,43.0,33.0,26.0,20.0,53,37,19,0.00,40.00,11,5,21,0.00
2013-3-30,54.0,46.3,35.0,40.0,30.5,-99.9,79,58,35,0.00,40.00,15,6,25,0.04
2013-3-31,57.0,41.3,26.0,29.0,25.0,18.0,93,56,26,0.00,40.00,15,8,27,0.03
2013-4-1,52.0,37.1,26.0,26.0,22.4,19.0,95,60,27,0.00,40.00,11,6,22,0.00
2013-4-2,55.0,42.0,27.0,27.0,21.3,18.0,76,47,28,0.00,40.00,8,4,15,0.00
2013-4-3,71.0,52.5,38.0,35.0,25.1,17.0,63,37,15,0.00,40.00,16,8,30,0.00
2013-4-4,55.0,43.2,30.0,32.0,23.7,17.0,76,48,32,0.00,40.00,13,7,21,0.00
2013-4-5,71.0,54.6,37.0,39.0,27.7,17.0,71,39,18,0.00,40.00,20,6,31,0.01
2013-4-6,62.0,52.8,43.0,37.0,29.4,23.0,71,44,25,0.00,40.00,20,7,31,0.01
2013-4-7,60.0,50.8,44.0,40.0,32.1,28.0,83,50,33,0.00,40.00,12,5,26,0.03
2013-4-8,45.0,35.3,18.0,39.0,30.4,14.0,96,82,65,0.00,40.00,22,12,42,0.03
2013-4-9,19.0,15.4,13.0,14.0,9.3,3.0,86,76,62,0.00,40.00,20,11,39,0.00
2013-4-10,29.0,20.0,13.0,25.0,16.8,10.0,90,87,83,0.00,40.00,8,4,16,0.36
2013-4-11,34.0,23.1,14.0,25.0,18.3,11.0,91,82,68,0.00,40.00,8,4,12,0.01
2013-4-12,45.0,31.8,22.0,31.0,24.5,19.0,94,76,46,0.00,40.00,8,4,18,0.01
2013-4-13,49.0,39.0,27.0,38.0,29.1,19.0,80,68,57,0.00,40.00,8,5,17,0.02
2013-4-14,43.0,35.2,21.0,37.0,21.8,8.0,78,59,43,0.00,40.00,16,10,36,0.02
2013-4-15,35.0,25.4,18.0,20.0,12.4,6.0,84,59,39,0.00,40.00,11,7,17,0.00
2013-4-16,26.0,23.3,21.0,22.0,20.0,17.0,93,87,82,0.00,40.00,12,6,18,0.13
2013-4-17,27.0,23.5,20.0,25.0,21.3,17.0,93,92,89,0.00,40.00,13,8,21,0.23
2013-4-18,33.0,24.7,17.0,25.0,18.8,14.0,89,78,58,0.00,40.00,8,4,14,0.02
2013-4-19,36.0,31.6,28.0,30.0,25.7,16.0,94,79,58,0.00,40.00,8,4,15,0.01
2013-4-20,53.0,40.2,30.0,39.0,33.1,27.0,91,77,54,0.00,40.00,10,4,18,0.00
2013-4-21,49.0,39.0,32.0,39.0,34.7,31.0,98,85,63,0.00,40.00,14,8,23,0.29
2013-4-22,33.0,26.6,20.0,32.0,21.8,11.0,98,82,65,0.00,40.00,18,9,26,0.34
2013-4-23,38.0,26.7,17.0,20.0,13.5,7.0,71,58,38,0.00,40.00,11,6,21,0.03
2013-4-24,41.0,35.3,28.0,26.0,18.7,11.0,72,51,40,0.00,40.00,15,9,31,0.02
2013-4-25,65.0,50.2,30.0,24.0,19.0,11.0,76,34,12,0.00,40.00,11,7,22,0.00
2013-4-26,68.0,54.8,40.0,26.0,23.5,20.0,48,31,20,0.00,40.00,8,4,18,0.00
2013-4-27,74.0,63.2,49.0,28.0,24.3,21.0,36,24,15,0.00,40.00,12,6,24,0.00
2013-4-28,68.0,58.7,45.0,43.0,31.7,23.0,89,40,23,0.00,40.00,15,8,24,0.04
2013-4-29,72.0,53.8,44.0,42.0,36.3,23.0,89,59,16,0.00,40.00,11,7,23,0.04
2013-4-30,50.0,40.5,32.0,33.0,27.6,16.0,98,66,27,0.00,40.00,14,8,22,0.02
2013-5-1,44.0,34.4,28.0,28.0,19.2,12.0,82,57,31,0.00,40.00,11,7,22,0.16
2013-5-2,49.0,40.0,30.0,29.0,19.9,12.0,66,45,32,0.00,40.00,12,5,21,0.06
2013-5-3,59.0,46.6,37.0,23.0,21.0,17.0,55,38,24,0.00,40.00,10,6,19,0.00
2013-5-4,54.0,44.0,33.0,18.0,15.4,10.0,48,33,20,0.00,40.00,12,7,25,0.00
2013-5-5,60.0,47.4,35.0,21.0,17.2,11.0,45,31,22,0.00,40.00,7,4,18,0.00
2013-5-6,68.0,55.5,42.0,29.0,24.3,19.0,39,31,22,0.00,40.00,11,5,21,0.00
2013-5-7,71.0,55.7,44.0,43.0,33.9,25.0,76,46,27,0.00,40.00,11,4,19,0.00
2013-5-8,69.0,58.8,46.0,43.0,38.2,34.0,79,49,29,0.00,40.00,15,9,31,0.00
2013-5-9,64.0,53.8,45.0,44.0,40.8,36.0,80,62,43,0.00,40.00,10,5,22,0.03
2013-5-10,71.0,54.8,43.0,44.0,35.0,-99.9,86,55,21,0.00,40.00,26,8,46,0.01
2013-5-11,61.0,49.5,41.0,35.0,25.6,-99.9,58,41,29,0.00,40.00,10,5,19,0.01
2013-5-12,74.0,60.2,41.0,38.0,32.1,25.0,55,36,27,0.00,40.00,9,5,18,0.00
2013-5-13,88.0,75.6,62.0,43.0,38.2,34.0,37,27,17,0.00,40.00,9,6,18,0.00
2013-5-14,78.0,72.0,60.0,48.0,39.7,34.0,39,31,24,0.00,40.00,12,8,21,0.00
2013-5-15,74.0,62.6,52.0,44.0,37.0,30.0,56,39,28,0.00,40.00,12,8,24,0.00
2013-5-16,76.0,55.8,53.0,55.0,30.4,-99.9,93,65,37,0.00,40.00,17,8,26,0.49
2013-5-17,74.0,61.5,51.0,56.0,45.3,-99.9,89,70,50,0.00,40.00,12,6,19,0.41
2013-5-18,73.0,62.5,53.0,56.0,50.5,44.0,83,65,55,0.00,40.00,17,8,30,0.11
2013-5-19,61.0,54.4,50.0,53.0,49.6,44.0,96,84,61,0.00,40.00,7,4,19,0.56
2013-5-20,58.0,51.6,47.0,45.0,38.8,36.0,83,62,48,0.00,40.00,16,9,31,0.01
2013-5-21,55.0,48.2,43.0,46.0,40.4,34.0,91,75,61,0.00,40.00,10,6,22,0.01
2013-5-22,55.0,47.6,42.0,45.0,42.4,40.0,98,83,67,0.00,40.00,19,8,31,0.01
2013-5-23,63.0,54.2,45.0,45.0,42.6,38.0,98,68,45,0.00,40.00,18,12,28,0.02
2013-5-24,81.0,64.2,54.0,54.0,45.1,19.0,90,59,10,0.00,40.00,15,8,22,0.00
2013-5-25,79.0,67.1,57.0,58.0,54.0,50.0,80,64,44,0.00,40.00,14,6,22,0.00
2013-5-26,70.0,60.4,53.0,58.0,55.0,51.0,99,83,61,0.00,40.00,19,8,28,0.00
2013-5-27,73.0,58.3,48.0,60.0,56.1,46.0,100,93,63,0.00,40.00,12,7,35,0.44
2013-5-28,73.0,59.1,47.0,52.0,43.9,34.0,94,60,34,0.00,40.00,11,6,20,0.37
2013-5-29,68.0,57.7,51.0,54.0,49.6,47.0,96,75,51,0.00,40.00,10,6,20,0.05
2013-5-30,55.0,51.1,47.0,52.0,44.2,40.0,96,77,65,0.00,40.00,21,13,50,0.06
2013-5-31,51.0,47.9,46.0,41.0,39.2,38.0,77,72,64,0.00,40.00,17,13,45,0.07
2013-6-1,63.0,54.3,44.0,42.0,36.5,-99.9,90,55,29,0.00,40.00,14,7,27,0.07
2013-6-2,74.0,58.2,45.0,49.0,42.6,35.0,73,57,38,0.00,40.00,10,6,18,0.01
2013-6-3,75.0,61.9,51.0,52.0,45.5,36.0,81,58,24,0.00,40.00,11,6,20,0.00
2013-6-4,64.0,55.9,46.0,44.0,36.6,29.0,66,49,32,0.00,40.00,12,7,28,0.00
2013-6-5,63.0,50.8,40.0,42.0,37.0,33.0,77,60,43,0.00,40.00,9,5,15,0.00
2013-6-6,69.0,56.4,43.0,48.0,43.2,38.0,85,63,44,0.00,40.00,11,5,18,0.00
2013-6-7,81.0,66.1,52.0,53.0,43.5,39.0,90,49,22,0.00,40.00,17,7,41,0.16
2013-6-8,72.0,62.8,53.0,54.0,44.5,37.0,96,56,30,0.00,40.00,17,9,41,0.33
2013-6-9,76.0,65.2,52.0,53.0,46.8,41.0,69,52,37,0.00,40.00,9,6,16,0.16
2013-6-10,83.0,71.8,59.0,58.0,53.6,47.0,70,54,40,0.00,40.00,12,7,18,0.00
2013-6-11,73.0,66.6,55.0,62.0,57.3,53.0,95,73,63,0.00,40.00,19,13,31,0.41
2013-6-12,64.0,59.0,54.0,57.0,51.8,48.0,95,78,66,0.00,40.00,12,7,21,0.41
2013-6-13,68.0,59.3,50.0,56.0,51.0,46.0,89,75,62,0.00,40.00,15,7,25,0.00
2013-6-14,82.0,69.1,61.0,59.0,51.5,36.0,77,56,20,0.00,40.00,13,6,27,0.00
2013-6-15,74.0,64.9,56.0,48.0,44.9,40.0,65,49,36,0.00,40.00,13,7,25,0.00
2013-6-16,80.0,66.3,58.0,59.0,52.5,46.0,77,62,48,0.00,40.00,17,7,31,0.00
2013-6-17,73.0,61.7,54.0,54.0,51.2,47.0,89,70,50,0.00,40.00,25,7,39,0.39
2013-6-18,80.0,67.6,53.0,55.0,52.1,47.0,84,59,42,0.00,40.00,13,6,21,0.03
2013-6-19,80.0,70.5,59.0,62.0,54.8,46.0,69,58,49,0.00,40.00,16,8,26,0.00
2013-6-20,82.0,72.2,64.0,61.0,56.8,42.0,82,61,24,0.00,40.00,9,5,22,0.00
2013-6-22,73.0,65.5,56.0,59.0,55.3,49.0,91,71,61,0.00,40.00,12,7,25,0.31
2013-6-23,76.0,64.4,52.0,52.0,46.7,33.0,98,58,23,0.00,40.00,10,6,20,0.30
2013-6-24,85.0,70.1,60.0,60.0,52.3,36.0,94,58,22,0.00,40.00,18,5,35,0.00
2013-6-25,82.0,72.5,64.0,56.0,48.6,41.0,62,44,30,0.00,40.00,12,7,24,0.00
2013-6-26,89.0,74.1,63.0,58.0,50.7,44.0,64,46,21,0.00,40.00,10,6,21,0.12
2013-6-27,88.0,75.2,63.0,56.0,52.3,49.0,63,47,26,0.00,40.00,11,7,20,0.12
2013-6-28,83.0,73.3,58.0,53.0,50.8,47.0,73,47,33,0.00,40.00,10,6,19,0.00
2013-6-29,77.0,69.4,59.0,56.0,50.2,42.0,75,52,33,0.00,40.00,14,7,23,0.00
2013-6-30,79.0,68.8,60.0,51.0,48.6,43.0,66,50,36,0.00,40.00,8,5,18,0.00
2013-7-1,78.0,67.4,58.0,59.0,53.1,47.0,81,62,39,0.00,40.00,9,4,17,0.14
2013-7-2,81.0,69.2,57.0,55.0,50.2,47.0,77,53,34,0.00,40.00,8,4,23,0.03
2013-7-3,89.0,75.8,61.0,49.0,44.8,41.0,57,36,19,0.00,40.00,11,6,19,0.00
2013-7-4,86.0,73.3,66.0,60.0,53.9,43.0,78,53,32,0.00,40.00,9,5,45,0.19
2013-7-5,83.0,73.2,66.0,61.0,56.0,53.0,80,56,37,0.00,40.00,10,5,25,0.15
2013-7-6,87.0,70.6,61.0,61.0,56.3,51.0,80,62,39,0.00,40.00,16,6,23,0.07
2013-7-7,84.0,70.5,60.0,63.0,56.8,50.0,93,65,39,0.00,40.00,11,6,19,0.12
2013-7-8,83.0,69.7,60.0,65.0,59.2,55.0,96,72,49,0.00,40.00,13,7,27,1.48
2013-7-9,80.0,71.6,57.0,59.0,55.0,53.0,89,58,42,0.00,40.00,11,6,22,0.01
2013-7-10,89.0,73.1,61.0,61.0,52.6,-99.9,73,53,32,0.00,40.00,13,7,26,0.00
2013-7-11,96.0,80.6,68.0,65.0,57.6,48.0,75,49,20,0.00,40.00,17,6,25,0.00
2013-7-12,85.0,78.2,70.0,60.0,57.0,53.0,70,49,37,0.00,40.00,13,6,26,0.00
2013-7-13,90.0,77.7,67.0,63.0,59.2,53.0,66,54,38,0.00,40.00,10,4,15,0.00
2013-7-14,76.0,68.5,60.0,62.0,58.7,55.0,96,72,62,0.00,40.00,16,10,32,0.00
2013-7-15,83.0,69.4,60.0,65.0,60.7,50.0,97,78,42,0.00,40.00,16,7,23,0.00
2013-7-16,87.0,80.7,71.0,54.0,51.5,49.0,52,37,29,0.00,40.00,10,7,21,0.00
2013-7-17,88.0,76.4,65.0,60.0,55.1,51.0,72,50,29,0.00,40.00,13,6,22,0.00
2013-7-18,89.0,80.2,69.0,61.0,56.7,53.0,63,46,33,0.00,40.00,20,7,30,0.00
2013-7-19,86.0,73.0,62.0,61.0,55.7,52.0,88,57,36,0.00,40.00,12,7,25,0.26
2013-7-20,86.0,73.2,63.0,61.0,55.2,-99.9,91,57,35,0.00,40.00,15,6,30,0.05
2013-7-21,88.0,73.4,60.0,61.0,57.2,55.0,95,60,34,0.00,40.00,15,8,25,0.15
2013-7-22,85.0,73.3,63.0,59.0,54.3,49.0,82,54,30,0.00,40.00,13,7,40,0.05
2013-7-23,83.0,69.8,59.0,60.0,56.9,54.0,85,66,42,0.00,40.00,12,6,22,0.05
2013-7-24,83.0,73.9,64.0,60.0,56.1,52.0,80,55,38,0.00,40.00,9,5,17,0.00
2013-7-25,80.0,70.1,59.0,59.0,54.5,49.0,93,60,41,0.00,40.00,13,7,24,0.02
2013-7-26,69.0,60.2,50.0,52.0,48.9,45.0,96,67,51,0.00,40.00,11,8,21,0.31
2013-7-27,69.0,59.6,49.0,53.0,47.9,43.0,83,66,51,0.00,40.00,8,6,16,0.01
2013-7-28,71.0,63.1,54.0,59.0,55.6,52.0,96,77,62,0.00,40.00,9,4,16,0.00
2013-7-29,80.0,66.9,55.0,62.0,56.5,54.0,98,72,44,0.00,40.00,8,5,30,0.02
2013-7-30,88.0,72.3,61.0,62.0,55.3,43.0,92,60,21,0.00,40.00,13,7,32,0.01
2013-7-31,81.0,70.7,58.0,62.0,53.3,48.0,94,57,38,0.00,40.00,7,5,16,0.07
2013-8-1,80.0,73.2,62.0,59.0,54.3,49.0,81,53,39,0.00,40.00,14,9,24,0.04
2013-8-2,73.0,63.2,56.0,60.0,55.7,52.0,98,78,56,0.00,40.00,15,8,32,0.21
2013-8-3,77.0,66.1,57.0,62.0,59.5,56.0,100,81,57,0.00,40.00,16,7,22,1.05
2013-8-4,85.0,71.0,62.0,65.0,62.2,60.0,100,76,46,0.00,40.00,10,5,19,0.03
2013-8-5,82.0,70.2,58.0,63.0,58.4,53.0,92,68,45,0.00,40.00,12,5,27,0.10
2013-8-6,81.0,69.2,58.0,58.0,54.2,50.0,93,61,39,0.00,40.00,12,6,18,0.07
2013-8-7,81.0,68.1,55.0,60.0,54.0,49.0,96,63,41,0.00,40.00,10,5,21,0.38
2013-8-8,75.0,66.6,55.0,58.0,54.8,48.0,96,67,55,0.00,40.00,10,6,20,0.39
2013-8-9,76.0,66.0,57.0,58.0,54.2,48.0,88,67,52,0.00,40.00,9,5,28,0.00
2013-8-10,80.0,70.0,59.0,61.0,58.3,55.0,93,68,49,0.00,40.00,7,4,16,0.02
2013-8-11,77.0,67.0,56.0,63.0,59.2,49.0,99,78,52,0.00,40.00,10,5,27,0.35
2013-8-12,80.0,68.0,56.0,60.0,54.3,47.0,84,62,47,0.00,40.00,8,4,25,0.14
2013-8-13,80.0,66.3,56.0,62.0,57.5,-99.9,93,77,51,0.00,40.00,14,7,25,0.27
2013-8-14,77.0,65.7,55.0,60.0,52.5,-99.9,88,68,45,0.00,40.00,10,5,22,0.27
2013-8-15,76.0,62.6,58.0,61.0,47.9,-99.9,97,67,53,0.00,40.00,9,5,17,0.04
2013-8-16,84.0,68.3,55.0,64.0,55.2,-99.9,99,71,43,0.00,40.00,9,4,14,0.01
2013-8-17,89.0,76.8,65.0,61.0,55.8,-99.9,72,51,36,0.00,40.00,7,4,12,0.01
2013-8-18,81.0,74.2,65.0,65.0,61.6,56.0,80,65,53,0.00,40.00,11,5,21,0.00
2013-8-19,88.0,75.0,67.0,64.0,50.9,-99.9,78,50,27,0.00,40.00,11,5,20,0.00
2013-8-20,95.0,79.9,67.0,61.0,52.9,48.0,65,41,22,0.00,40.00,8,4,16,0.00
2013-8-21,79.0,71.5,63.0,59.0,51.8,45.0,78,51,34,0.00,40.00,11,6,19,0.06
2013-8-22,80.0,69.4,60.0,60.0,56.7,52.0,86,65,44,0.00,40.00,9,5,15,0.02
2013-8-23,88.0,73.9,63.0,66.0,60.7,57.0,93,68,35,0.00,40.00,12,4,19,0.00
2013-8-24,92.0,80.1,71.0,59.0,49.1,-99.9,66,36,23,0.00,40.00,11,7,24,0.00
2013-8-25,90.0,80.7,68.0,58.0,52.5,47.0,52,39,28,0.00,40.00,9,4,14,0.00
2013-8-26,93.0,82.6,74.0,58.0,50.9,42.0,56,36,18,0.00,40.00,10,6,23,0.00
2013-8-27,90.0,79.5,70.0,53.0,51.2,48.0,55,39,24,0.00,40.00,10,6,20,0.00
2013-8-28,88.0,81.8,73.0,69.0,64.0,48.0,75,56,35,0.00,40.00,25,7,43,0.77
2013-8-29,91.0,81.2,72.0,58.0,52.4,46.0,50,37,31,0.00,40.00,11,6,37,0.77
2013-8-30,93.0,76.8,67.0,65.0,60.1,53.0,83,58,34,0.00,40.00,15,6,25,0.00
2013-8-31,87.0,73.8,63.0,59.0,50.5,-99.9,73,47,29,0.00,40.00,15,8,27,0.00
2013-9-1,81.0,68.8,55.0,46.0,42.6,37.0,53,40,27,0.00,40.00,9,5,17,0.00
2013-9-2,90.0,75.9,61.0,57.0,50.0,43.0,55,42,25,0.00,40.00,10,4,21,0.00
2013-9-3,94.0,80.5,68.0,59.0,54.7,52.0,62,43,25,0.00,40.00,14,6,26,0.00
2013-9-4,91.0,78.6,66.0,62.0,58.4,55.0,72,52,34,0.00,40.00,8,5,25,0.00
2013-9-5,93.0,79.0,67.0,62.0,59.2,53.0,79,54,31,0.00,40.00,8,5,14,0.00
2013-9-6,93.0,83.0,71.0,57.0,51.7,45.0,53,36,21,0.00,40.00,13,5,23,0.00
2013-9-7,90.0,78.8,68.0,61.0,54.2,-99.9,60,45,30,0.00,40.00,11,5,19,0.00
2013-9-8,84.0,71.4,63.0,64.0,61.9,58.0,99,73,49,0.00,40.00,15,8,41,0.59
2013-9-9,73.0,65.4,59.0,63.0,59.4,56.0,94,82,66,0.00,40.00,12,5,17,0.59
2013-9-10,73.0,65.5,59.0,56.0,51.6,46.0,89,62,47,0.00,40.00,11,5,17,0.00
2013-9-11,79.0,67.3,55.0,55.0,49.3,43.0,82,56,32,0.00,40.00,8,4,14,0.00
2013-9-12,75.0,67.1,55.0,52.0,46.8,42.0,68,49,39,0.00,40.00,8,5,15,0.00
2013-9-13,62.0,58.2,53.0,57.0,52.3,45.0,99,82,55,0.00,40.00,11,5,16,0.06
2013-9-14,80.0,66.2,57.0,58.0,53.8,-99.9,99,70,39,0.00,40.00,15,8,28,0.02
2013-9-15,64.0,57.4,52.0,57.0,51.7,48.0,97,82,60,0.00,40.00,12,8,23,0.00
2013-9-16,65.0,56.2,50.0,54.0,51.4,48.0,94,84,66,0.00,40.00,13,8,20,0.00
2013-9-17,89.0,74.4,54.0,54.0,46.4,40.0,96,45,18,0.00,40.00,15,5,24,0.00
2013-9-18,75.0,66.5,60.0,47.0,44.3,42.0,63,46,34,0.00,40.00,4,3,9,0.00
2013-9-19,67.0,56.8,45.0,48.0,36.7,30.0,81,50,27,0.00,40.00,11,6,24,0.00
2013-9-20,74.0,56.9,41.0,38.0,32.9,24.0,75,45,18,0.00,40.00,9,5,21,0.00
2013-9-21,88.0,70.0,49.0,33.0,26.9,-99.9,47,24,11,0.00,40.00,13,5,23,0.00
2013-9-22,87.0,76.5,57.0,54.0,41.2,35.0,89,32,19,0.00,40.00,15,8,27,0.01
2013-9-23,61.0,56.3,48.0,54.0,49.9,47.0,97,80,63,0.00,40.00,11,6,21,0.40
2013-9-24,73.0,61.8,48.0,47.0,38.6,35.0,94,46,25,0.00,40.00,17,7,29,0.04
2013-9-25,79.0,64.0,53.0,47.0,42.2,36.0,62,46,27,0.00,40.00,17,6,25,0.00
2013-9-26,66.0,57.6,49.0,48.0,43.0,36.0,77,58,46,0.00,40.00,14,8,29,0.00
2013-9-27,50.0,43.9,40.0,40.0,37.3,34.0,96,78,57,0.00,40.00,10,5,19,0.13
2013-9-28,63.0,49.2,36.0,36.0,30.3,-99.9,83,53,27,0.00,40.00,13,7,25,0.04
2013-9-29,75.0,62.7,52.0,36.0,31.6,27.0,53,33,17,0.00,40.00,14,8,32,0.00
2013-9-30,82.0,67.8,56.0,36.0,32.3,28.0,45,29,15,0.00,40.00,16,8,37,0.00
2013-10-1,63.0,59.5,56.0,34.0,33.6,33.0,44,38,33,0.00,40.00,5,3,15,0.00
2013-10-2,65.0,56.6,49.0,40.0,34.3,30.0,52,44,28,0.00,40.00,14,6,23,0.00
2013-10-3,50.0,44.7,35.0,40.0,36.1,32.0,95,73,50,0.00,40.00,25,14,41,0.35
2013-10-4,35.0,32.4,29.0,34.0,30.9,28.0,97,94,92,0.00,40.00,32,20,59,0.91
2013-10-5,44.0,33.1,29.0,28.0,25.4,16.0,92,75,51,0.00,40.00,23,15,45,0.46
2013-10-6,64.0,49.2,36.0,42.0,32.3,26.0,68,53,41,0.00,40.00,13,7,21,0.05
2013-10-7,71.0,62.3,44.0,36.0,33.5,30.0,59,35,22,0.00,40.00,9,6,22,0.00
2013-10-8,69.0,58.7,47.0,40.0,33.8,29.0,66,40,26,0.00,40.00,8,4,16,0.00
2013-10-9,57.0,50.6,45.0,37.0,30.3,25.0,73,47,29,0.00,40.00,17,11,29,0.00
2013-10-10,60.0,51.8,44.0,48.0,41.8,33.0,95,70,53,0.00,40.00,14,5,23,0.10
2013-10-11,50.0,46.2,37.0,48.0,36.7,27.0,98,72,47,0.00,40.00,21,13,48,1.57
2013-10-12,54.0,42.4,32.0,34.0,26.8,-99.9,85,58,33,0.00,40.00,9,5,20,0.05
2013-10-13,58.0,47.0,36.0,41.0,36.4,29.0,82,67,51,0.00,40.00,9,5,16,0.05
2013-10-14,49.0,42.4,36.0,43.0,36.4,23.0,98,80,57,0.00,40.00,12,7,22,0.95
2013-10-15,40.0,36.6,33.0,32.0,25.7,21.0,91,65,49,0.00,40.00,19,6,30,0.01
2013-10-16,57.0,41.4,30.0,26.0,22.7,20.0,74,49,28,0.00,40.00,11,5,18,0.00
2013-10-17,43.0,37.7,29.0,29.0,24.4,20.0,71,59,46,0.00,40.00,11,6,19,0.00
2013-10-18,42.0,35.6,29.0,25.0,21.7,17.0,80,58,37,0.00,40.00,12,6,24,0.00
2013-10-19,60.0,48.5,38.0,29.0,24.2,-99.9,56,40,28,0.00,40.00,13,7,28,0.00
2013-10-20,49.0,43.9,36.0,36.0,30.2,23.0,79,59,38,0.00,40.00,11,6,25,0.01
2013-10-21,53.0,43.2,34.0,37.0,32.7,29.0,89,68,47,0.00,40.00,11,7,25,0.01
2013-10-22,50.0,45.1,42.0,40.0,36.7,33.0,83,73,57,0.00,40.00,10,5,16,0.00
2013-10-23,52.0,45.5,38.0,39.0,36.6,34.0,91,72,58,0.00,40.00,12,6,18,0.00
2013-10-24,48.0,37.6,32.0,39.0,34.4,32.0,98,89,69,0.00,40.00,7,3,11,0.00
2013-10-25,67.0,56.5,38.0,42.0,36.7,30.0,85,50,35,0.00,40.00,9,5,19,0.00
2013-10-26,63.0,48.1,34.0,33.0,28.5,-99.9,74,51,24,0.00,40.00,8,4,18,0.00
2013-10-27,67.0,52.6,36.0,35.0,29.6,24.0,80,45,23,0.00,40.00,19,10,33,0.00
2013-10-28,36.0,25.6,24.0,30.0,22.4,-99.9,95,91,80,0.00,40.00,21,15,33,0.00
2013-10-29,29.0,26.2,23.0,29.0,25.1,22.0,98,95,93,0.00,40.00,11,1,18,0.00
2013-10-30,49.0,37.6,29.0,37.0,32.2,28.0,98,82,53,0.00,40.00,11,3,21,0.09
2013-10-31,50.0,41.6,32.0,32.0,27.3,23.0,80,58,42,0.00,40.00,15,7,33,0.07
2013-11-1,49.0,42.0,36.0,32.0,22.4,15.0,78,48,28,0.00,40.00,24,10,48,0.00
2013-11-2,57.0,46.1,36.0,29.0,21.5,-99.9,50,39,29,0.00,40.00,13,7,19,0.00
2013-11-3,56.0,46.9,33.0,33.0,27.8,21.0,94,51,28,0.00,40.00,11,6,22,0.00
2013-11-4,42.0,35.0,28.0,32.0,22.2,13.0,96,62,33,0.00,40.00,9,5,18,0.01
2013-11-5,29.0,26.0,20.0,27.0,23.6,16.0,94,90,82,0.00,40.00,10,6,15,0.06
2013-11-6,45.0,33.0,18.0,30.0,20.9,14.0,87,62,43,0.00,40.00,12,6,27,0.18
2013-11-7,49.0,38.5,28.0,30.0,25.1,18.0,89,61,36,0.00,40.00,10,6,15,0.01
2013-11-8,52.0,46.1,38.0,31.0,22.1,18.0,57,39,27,0.00,40.00,19,9,36,0.00
2013-11-9,51.0,40.2,33.0,28.0,22.1,-99.9,65,50,35,0.00,40.00,12,6,18,0.00
2013-11-10,60.0,42.1,31.0,32.0,26.4,18.0,85,55,35,0.00,40.00,12,4,21,0.00
2013-11-11,31.0,21.8,18.0,27.0,19.4,16.0,96,90,85,0.00,40.00,12,5,22,0.00
2013-11-12,58.0,38.9,21.0,27.0,22.5,16.0,91,57,28,0.00,40.00,13,6,22,0.00
2013-11-13,62.0,51.7,44.0,37.0,25.5,15.0,71,37,23,0.00,40.00,7,4,21,0.00
2013-11-14,53.0,43.5,37.0,38.0,28.5,23.0,84,57,35,0.00,40.00,10,5,22,0.02
2013-11-15,52.0,42.6,34.0,29.0,25.5,22.0,74,52,34,0.00,40.00,7,4,24,0.00
2013-11-16,47.0,38.8,33.0,24.0,18.8,-99.9,58,46,34,0.00,40.00,11,7,25,0.00
2013-11-17,43.0,35.9,27.0,25.0,15.5,7.0,72,45,26,0.00,40.00,14,8,33,0.00
2013-11-18,56.0,38.6,25.0,22.0,14.7,9.0,52,39,23,0.00,40.00,11,4,21,0.00
2013-11-19,58.0,51.8,40.0,25.0,23.1,21.0,47,33,25,0.00,40.00,11,6,33,0.00
2013-11-20,48.0,35.9,17.0,29.0,22.1,12.0,91,59,40,0.00,40.00,12,4,19,0.00
2013-11-21,17.0,13.2,8.0,12.0,7.5,-1.0,87,78,64,0.00,40.00,13,5,20,0.00
2013-11-22,36.0,27.4,17.0,13.0,5.8,1.0,61,40,22,0.00,40.00,7,3,12,0.13
2013-11-23,41.0,23.4,11.0,13.0,4.5,-99.9,75,49,23,0.00,40.00,9,4,13,0.03
2013-11-24,42.0,35.8,31.0,24.0,16.9,3.0,64,47,29,0.00,40.00,11,5,22,0.00
2013-11-25,43.0,35.5,28.0,25.0,21.2,16.0,78,57,39,0.00,40.00,11,4,24,0.00
2013-11-26,33.0,27.4,21.0,21.0,18.2,13.0,84,69,51,0.00,40.00,9,4,15,0.00
2013-11-27,58.0,45.3,30.0,23.0,20.9,18.0,64,40,22,0.00,40.00,10,6,17,0.00
2013-11-28,38.0,30.9,21.0,24.0,21.4,17.0,85,68,56,0.00,40.00,9,4,13,0.00
2013-11-29,60.0,49.2,39.0,25.0,20.3,17.0,44,32,20,0.00,40.00,10,5,15,0.00
2013-11-30,52.0,40.9,34.0,25.0,20.9,-99.9,65,48,33,0.00,40.00,7,3,18,0.00
2013-12-1,50.0,42.1,30.0,27.0,25.1,22.0,72,52,38,0.00,40.00,8,4,17,0.00
2013-12-2,55.0,42.9,35.0,33.0,27.6,23.0,90,57,34,0.00,40.00,12,6,18,0.00
2013-12-3,35.0,19.0,9.0,32.0,16.4,5.0,97,89,83,0.00,40.00,12,2,17,0.00
2013-12-4,13.0,5.9,-3.0,6.0,-0.8,-14.0,83,73,59,0.00,40.00,0,0,0,0.00
2013-12-5,8.0,-3.7,-12.0,-6.0,-13.3,-21.0,73,63,47,0.00,40.00,0,0,0,0.00
2013-12-6,2.0,-7.7,-14.0,-10.0,-16.2,-21.0,72,65,56,0.00,40.00,0,0,0,0.00
2013-12-7,-2.0,-7.7,-11.0,-10.0,-16.6,-99.9,73,66,55,0.00,40.00,0,0,0,0.00
2013-12-8,8.0,0.2,-4.0,-5.0,-8.5,-11.0,75,66,54,0.00,40.00,13,2,18,0.00
2013-12-9,20.0,9.5,-7.0,15.0,-1.0,-14.0,81,63,41,0.00,40.00,15,7,31,0.01
2013-12-10,31.0,20.6,7.0,17.0,11.3,3.0,89,68,49,0.00,40.00,9,5,23,0.11
2013-12-11,31.0,16.8,3.0,9.0,3.9,-2.0,83,59,36,0.00,40.00,9,4,16,0.06
2013-12-12,47.0,35.4,30.0,22.0,16.7,10.0,58,47,29,0.00,40.00,10,5,19,0.10
2013-12-13,39.0,29.5,22.0,25.0,20.1,13.0,91,70,37,0.00,40.00,8,3,14,0.01
2013-12-14,43.0,33.7,28.0,24.0,20.6,-99.9,86,61,43,0.00,40.00,11,7,22,0.00
2013-12-15,49.0,39.2,31.0,23.0,21.7,19.0,66,50,36,0.00,40.00,7,5,20,0.00
2013-12-16,51.0,41.6,35.0,21.0,18.8,17.0,53,40,31,0.00,40.00,9,6,28,0.00
2013-12-17,47.0,36.2,22.0,21.0,19.1,16.0,78,52,30,0.00,40.00,10,5,21,0.00
2013-12-18,61.0,46.1,32.0,21.0,19.0,17.0,63,36,19,0.00,40.00,15,9,27,0.00
2013-12-19,32.0,13.8,-2.0,24.0,9.9,-8.0,96,85,63,0.00,40.00,11,3,17,0.00
2013-12-20,30.0,8.2,-4.0,23.0,1.4,-10.0,79,74,69,0.00,40.00,11,2,20,0.18
2013-12-21,26.0,16.7,12.0,21.0,9.5,-99.9,87,76,61,0.00,40.00,9,3,15,0.01
2013-12-22,15.0,8.7,2.0,11.0,4.2,-3.0,87,82,78,0.00,40.00,6,3,10,0.01
2013-12-23,34.0,7.1,-5.0,25.0,-0.3,-11.0,80,71,57,0.00,40.00,10,4,13,0.03
2013-12-24,42.0,33.9,27.0,29.0,23.6,14.0,84,67,31,0.00,40.00,12,6,31,0.03
2013-12-25,36.0,27.9,22.0,20.0,13.9,8.0,82,57,37,0.00,40.00,9,6,21,0.01
2013-12-26,46.0,37.5,28.0,21.0,17.0,10.0,52,43,35,0.00,40.00,13,8,23,0.00
2013-12-27,54.0,43.8,35.0,27.0,24.0,20.0,59,46,33,0.00,40.00,14,7,31,0.00
2013-12-28,47.0,32.8,9.0,22.0,14.2,-99.9,77,51,34,0.00,40.00,15,8,31,0.00
2013-12-29,30.0,17.5,2.0,21.0,7.6,-3.0,81,66,46,0.00,40.00,9,4,18,0.00
2013-12-30,39.0,31.6,23.0,24.0,20.8,18.0,88,65,43,0.00,40.00,18,8,33,0.00
2013-12-31,39.0,28.6,19.0,24.0,18.8,16.0,89,69,49,0.00,40.00,10,5,17,0.00
2014-1-1,29.0,21.6,15.0,23.0,17.1,13.0,92,83,69,0.00,40.00,8,3,16,0.01
2014-1-2,38.0,31.1,23.0,20.0,11.1,-99.9,81,56,37,0.00,40.00,9,6,19,0.01